Regional Weather Roundup
Issued by NWS

Home | Current Version | Previous Version | Graphics & Text | Print | Product List | Glossary On
Versions: 1 2 3 4 5 6 7 8 9 10 11 12 13 14 15 16 17 18 19 20 21 22 23 24 25 26 27 28 29 30 31 32 33 34 35 36 37 38 39 40 41 42 43 44 45 46 47 48 49 50
565
ASUS45 KBOU 270810
RWRCO

WEATHER ROUNDUP FOR COLORADO
NATIONAL WEATHER SERVICE DENVER/BOULDER CO
200 AM MDT TUE SEP 27 2016

NOTE: "FAIR" INDICATES FEW OR NO CLOUDS BELOW 12000 FEET WITH NO
SIGNIFICANT WEATHER AND/OR OBSTRUCTIONS TO VISIBILITY.

COZ001>005-013-030-031-270900-
...NORTHWEST COLORADO...

CITY           SKY/WX    TMP DP  RH WIND       PRES   REMARKS
CRAIG          FAIR      37  33  85 CALM      30.36F
HAYDEN         FAIR      45  30  57 E8        30.37S
MEEKER         FAIR      40  36  86 NE3       30.37S
MOUNT WERNER   NOT AVBL
STEAMBOAT SPGS FAIR      41  33  72 CALM      30.38F
WALDEN           N/A     30  25  80 SE9       30.46S WCI  22
$$

COZ006>008-011-270900-
...WEST CENTRAL VALLEYS...

CITY           SKY/WX    TMP DP  RH WIND       PRES   REMARKS
GRAND JUNCTION FAIR      53  40  61 SE8       30.26S
MONTROSE       FAIR      47  38  71 SE6       30.34S
EAGLE          FAIR      43  30  61 CALM      30.41S
RIFLE          FAIR      47  41  80 CALM      30.32S
DELTA          NOT AVBL
NUCLA          FAIR      50  34  53 E8        30.35F
$$

COZ017>023-064>068-270900-
...SOUTHWEST COLORADO...

CITY           SKY/WX    TMP DP  RH WIND       PRES   REMARKS
DURANGO        FAIR      41  35  79 CALM      30.39F
CORTEZ         FAIR      42  37  82 SE5       30.33S
PAGOSA SPRINGS FAIR      41  33  75 CALM      30.45F
TELLURIDE      FAIR      44  35  70 SE5       30.51F
WOLF CREEK PAS FAIR      36  28  75 MISG      30.67F
$$

COZ009-010-012-014-032>034-037-058>063-270900-
...CENTRAL COLORADO...

CITY           SKY/WX    TMP DP  RH WIND       PRES   REMARKS
ASPEN          FAIR      42  31  64 S5        30.42S
BUENA VISTA    FAIR      38  24  57 W3        30.46F
COPPER MTN     FAIR      45  21  39 W7        30.66S
BERTHOUD PASS  FAIR      36  23  60 NW18      30.66F
COTTONWOOD PAS FAIR      48  21  34 W3        30.54F
GUNNISON       FAIR      39  31  72 CALM      30.46R
KREMMLING      FAIR      34  25  69 CALM      30.45S
LEADVILLE      FAIR      30  21  69 NE3       30.54S
SALIDA         FAIR      46  28  49 W5        30.52S
SUNLIGHT       FAIR      48  30  49 CALM      30.62R
WILKERSON PASS FAIR      41  23  48 SW5       30.64F
$$

COZ069>075-270900-
...SAN LUIS VALLEY/SANGRE DE CRISTO MOUNTAINS...

CITY           SKY/WX    TMP DP  RH WIND       PRES   REMARKS
ALAMOSA        FAIR      38  30  73 CALM      30.42R
LA VETA PASS   FAIR      45  32  61 MISG      30.56S
SAGUACHE       NOT AVBL
$$

COZ035-036-038>040-270900-
...NORTHERN COLORADO FRONT RANGE...

CITY           SKY/WX    TMP DP  RH WIND       PRES   REMARKS
DENVER INTL AP FAIR      51  30  44 W13       30.29F
DMNS CITY PARK   N/A     51  39  62 SE6       30.30F
AURORA         CLEAR     50  31  49 SW9       30.31F
FRONT RANGE AP NOT AVBL
ERIE MUNI ARPT FAIR      43  34  70 CALM      30.29F
BOULDER MUN AP FAIR      54  32  43 W5        30.29F
CENTENNIAL     FAIR      50  31  48 CALM      30.32F
BROOMFIELD     FAIR      57  32  38 NW12      30.30F
FORT COLLINS   FAIR      54  43  66 CALM      30.29F
LONGMONT       FAIR      53  34  48 NW7       30.30F
$$

COZ041-046-047-076>085-087-088-270900-
...PIKES PEAK/PALMER DIVIDE AND SOUTHERN FOOTHILLS...

CITY           SKY/WX    TMP DP  RH WIND       PRES   REMARKS
COLO. SPRINGS  FAIR      46  30  53 N7        30.35F
A. F. ACADEMY  FAIR      41  29  62 N9        30.36F
SCHRIEVER AFB  NOT AVBL
ELLICOTT       NOT AVBL
FALCON         FAIR      44  30  57 W6        30.38F
FORT CARSON    FAIR      49  30  48 NW7       30.32F
LIMON          FAIR      37  27  67 N6        30.30F
MONUMENT HILL  FAIR      46  28  49 SW8       30.39F
TRINIDAD       FAIR      48  35  60 NW10      30.32S
$$

COZ042>045-048>051-090-091-270900-
...NORTHEAST COLORADO...

CITY           SKY/WX    TMP DP  RH WIND       PRES   REMARKS
GREELEY ARPT   FAIR      46  37  71 NW7       30.29F
AKRON          FAIR      51  36  56 S9        30.26F
BURLINGTON     FAIR      47  39  74 W6        30.24F
WRAY           FAIR      46  37  71 W7        30.23S
STERLING       FAIR      43  36  75 S5        30.24S
HOLYOKE        FAIR      46  39  76 W6        30.21F
FORT MORGAN    FAIR      47  34  59 NW6       30.27F
$$

COZ086-089-092>099-270900-
...SOUTHEAST COLORADO...

CITY           SKY/WX    TMP DP  RH WIND       PRES   REMARKS
PUEBLO         FAIR      48  31  51 SW3       30.27F
LA JUNTA       FAIR      53  34  48 CALM      30.24S
LAMAR          FAIR      46  35  65 SW3       30.21S
SPRINGFIELD    NOT AVBL
$$




USA.gov is the U.S. government's official web portal to all federal, state and local government web resources and services.